Time,TemperatureF,DewpointF,PressureIn,WindDirection,WindDirectionDegrees,WindSpeedMPH,WindSpeedGustMPH,Humidity,HourlyPrecipIn,Conditions,Clouds,dailyrainin,SolarRadiationWatts/m^2,SoftwareType,DateUTC
2013-12-02 00:22:00,30.0,26.0,-100.00,SSW,203,11.0,17.0,85,0.00,,,-99.99,3.000000,,2013-12-02 06:22:00,
2013-12-02 00:32:00,30.0,26.0,-100.00,SSW,203,11.0,17.0,85,0.00,,,-99.99,3.000000,,2013-12-02 06:32:00,
2013-12-02 00:42:00,30.0,26.0,-100.00,SSW,203,11.0,17.0,85,0.00,,,-99.99,3.000000,,2013-12-02 06:42:00,
2013-12-02 00:52:00,30.0,26.0,-100.00,SSW,203,11.0,17.0,85,0.00,,,-99.99,3.000000,,2013-12-02 06:52:00,
2013-12-02 01:21:00,30.0,27.0,-100.00,SSW,202,10.0,15.0,88,0.00,,,0.00,0.000000,,2013-12-02 07:21:00,
2013-12-02 01:32:00,30.0,27.0,-100.00,SSW,202,10.0,15.0,88,0.00,,,0.00,0.000000,,2013-12-02 07:32:00,
2013-12-02 01:42:00,30.0,27.0,-100.00,SSW,202,10.0,15.0,88,0.00,,,0.00,0.000000,,2013-12-02 07:42:00,
2013-12-02 01:52:00,30.0,27.0,-100.00,SSW,202,10.0,15.0,88,0.00,,,0.00,0.000000,,2013-12-02 07:52:00,
2013-12-02 02:22:00,31.0,28.0,-100.00,SSW,196,9.0,13.0,89,0.00,,,0.00,0.000000,,2013-12-02 08:22:00,
2013-12-02 02:32:00,31.0,28.0,-100.00,SSW,196,9.0,13.0,89,0.00,,,0.00,0.000000,,2013-12-02 08:32:00,
2013-12-02 02:42:00,31.0,28.0,-100.00,SSW,196,9.0,13.0,89,0.00,,,0.00,0.000000,,2013-12-02 08:42:00,
2013-12-02 02:52:00,31.0,28.0,-100.00,SSW,196,9.0,13.0,89,0.00,,,0.00,0.000000,,2013-12-02 08:52:00,
2013-12-02 03:22:00,31.0,29.0,-100.00,South,188,8.0,13.0,92,0.00,,,0.00,0.000000,,2013-12-02 09:22:00,
2013-12-02 03:32:00,31.0,29.0,-100.00,South,188,8.0,13.0,92,0.00,,,0.00,0.000000,,2013-12-02 09:32:00,
2013-12-02 03:43:00,31.0,29.0,-100.00,South,188,8.0,13.0,92,0.00,,,0.00,0.000000,,2013-12-02 09:43:00,
2013-12-02 03:53:00,31.0,29.0,-100.00,South,188,8.0,13.0,92,0.00,,,0.00,0.000000,,2013-12-02 09:53:00,
2013-12-02 04:23:00,31.0,29.0,-100.00,SSW,192,9.0,15.0,92,0.00,,,0.00,0.000000,,2013-12-02 10:23:00,
2013-12-02 04:33:00,31.0,29.0,-100.00,SSW,192,9.0,15.0,92,0.00,,,0.00,0.000000,,2013-12-02 10:33:00,
2013-12-02 04:42:00,31.0,29.0,-100.00,SSW,192,9.0,15.0,92,0.00,,,0.00,0.000000,,2013-12-02 10:42:00,
2013-12-02 04:52:00,31.0,29.0,-100.00,SSW,192,9.0,15.0,92,0.00,,,0.00,0.000000,,2013-12-02 10:52:00,
2013-12-02 05:22:00,32.0,32.0,-100.00,South,188,9.0,12.0,100,0.00,,,0.00,0.000000,,2013-12-02 11:22:00,
2013-12-02 05:32:00,32.0,32.0,-100.00,South,188,9.0,12.0,100,0.00,,,0.00,0.000000,,2013-12-02 11:32:00,
2013-12-02 05:42:00,32.0,32.0,-100.00,South,188,9.0,12.0,100,0.00,,,0.00,0.000000,,2013-12-02 11:42:00,
2013-12-02 05:52:00,32.0,32.0,-100.00,South,188,9.0,12.0,100,0.00,,,0.00,0.000000,,2013-12-02 11:52:00,
2013-12-02 06:22:00,32.0,32.0,-100.00,ESE,121,7.0,11.0,100,0.00,,,0.00,0.000000,,2013-12-02 12:22:00,
2013-12-02 06:32:00,32.0,32.0,-100.00,ESE,121,7.0,11.0,100,0.00,,,0.00,0.000000,,2013-12-02 12:32:00,
2013-12-02 06:42:00,32.0,32.0,-100.00,ESE,121,7.0,11.0,100,0.00,,,0.00,0.000000,,2013-12-02 12:42:00,
2013-12-02 06:52:00,32.0,32.0,-100.00,ESE,121,7.0,11.0,100,0.00,,,0.00,0.000000,,2013-12-02 12:52:00,
2013-12-02 07:22:00,30.0,30.0,-100.00,ESE,118,5.0,10.0,100,0.00,,,0.00,0.000000,,2013-12-02 13:22:00,
2013-12-02 07:32:00,30.0,30.0,-100.00,ESE,118,5.0,10.0,100,0.00,,,0.00,0.000000,,2013-12-02 13:32:00,
2013-12-02 07:42:00,30.0,30.0,-100.00,ESE,118,5.0,10.0,100,0.00,,,0.00,0.000000,,2013-12-02 13:42:00,
2013-12-02 07:52:00,30.0,30.0,-100.00,ESE,118,5.0,10.0,100,0.00,,,0.00,0.000000,,2013-12-02 13:52:00,
2013-12-02 08:22:00,32.0,32.0,-100.00,ESE,122,8.0,11.0,100,0.00,,,0.00,0.000000,,2013-12-02 14:22:00,
2013-12-02 08:32:00,32.0,32.0,-100.00,ESE,122,8.0,11.0,100,0.00,,,0.00,0.000000,,2013-12-02 14:32:00,
2013-12-02 08:42:00,32.0,32.0,-100.00,ESE,122,8.0,11.0,100,0.00,,,0.00,0.000000,,2013-12-02 14:42:00,
2013-12-02 08:52:00,32.0,32.0,-100.00,ESE,122,8.0,11.0,100,0.00,,,0.00,0.000000,,2013-12-02 14:52:00,
2013-12-02 09:21:00,31.0,31.0,-100.00,ESE,103,7.0,12.0,100,0.00,,,0.00,11.000000,,2013-12-02 15:21:00,
2013-12-02 09:34:00,31.0,31.0,-100.00,ESE,103,7.0,12.0,100,0.00,,,0.00,11.000000,,2013-12-02 15:34:00,
2013-12-02 09:43:00,31.0,31.0,-100.00,ESE,103,7.0,12.0,100,0.00,,,0.00,11.000000,,2013-12-02 15:43:00,
2013-12-02 09:53:00,31.0,31.0,-100.00,ESE,103,7.0,12.0,100,0.00,,,0.00,11.000000,,2013-12-02 15:53:00,
2013-12-02 10:23:00,31.0,31.0,-100.00,SE,135,7.0,10.0,100,0.00,,,0.00,46.000000,,2013-12-02 16:23:00,
2013-12-02 10:33:00,31.0,31.0,-100.00,SE,135,7.0,10.0,100,0.00,,,0.00,46.000000,,2013-12-02 16:33:00,
2013-12-02 10:42:00,31.0,31.0,-100.00,SE,135,7.0,10.0,100,0.00,,,0.00,46.000000,,2013-12-02 16:42:00,
2013-12-02 10:53:00,31.0,31.0,-100.00,SE,135,7.0,10.0,100,0.00,,,0.00,46.000000,,2013-12-02 16:53:00,
2013-12-02 11:22:00,32.0,32.0,-100.00,SSE,165,6.0,11.0,100,0.02,,,0.02,215.000000,,2013-12-02 17:22:00,
2013-12-02 11:33:00,32.0,32.0,-100.00,SSE,165,6.0,11.0,100,0.02,,,0.02,215.000000,,2013-12-02 17:33:00,
2013-12-02 11:42:00,32.0,32.0,-100.00,SSE,165,6.0,11.0,100,0.02,,,0.02,215.000000,,2013-12-02 17:42:00,
2013-12-02 11:52:00,32.0,32.0,-100.00,SSE,165,6.0,11.0,100,0.02,,,0.02,215.000000,,2013-12-02 17:52:00,
2013-12-02 12:22:00,32.0,32.0,-100.00,ESE,105,5.0,9.0,100,0.09,,,0.11,118.000000,,2013-12-02 18:22:00,
2013-12-02 12:32:00,32.0,32.0,-100.00,ESE,105,5.0,9.0,100,0.09,,,0.11,118.000000,,2013-12-02 18:32:00,
2013-12-02 12:42:00,32.0,32.0,-100.00,ESE,105,5.0,9.0,100,0.09,,,0.11,118.000000,,2013-12-02 18:42:00,
2013-12-02 12:52:00,32.0,32.0,-100.00,ESE,105,5.0,9.0,100,0.09,,,0.11,118.000000,,2013-12-02 18:52:00,
2013-12-02 13:22:00,34.0,34.0,-100.00,SSE,163,7.0,10.0,100,0.06,,,0.17,319.000000,,2013-12-02 19:22:00,
2013-12-02 13:32:00,34.0,34.0,-100.00,SSE,163,7.0,10.0,100,0.06,,,0.17,319.000000,,2013-12-02 19:32:00,
2013-12-02 13:42:00,34.0,34.0,-100.00,SSE,163,7.0,10.0,100,0.06,,,0.17,319.000000,,2013-12-02 19:42:00,
2013-12-02 13:52:00,34.0,34.0,-100.00,SSE,163,7.0,10.0,100,0.06,,,0.17,319.000000,,2013-12-02 19:52:00,
2013-12-02 14:21:00,35.0,35.0,-100.00,WSW,245,5.0,8.0,100,0.01,,,0.18,235.000000,,2013-12-02 20:21:00,
2013-12-02 14:32:00,35.0,35.0,-100.00,WSW,245,5.0,8.0,100,0.01,,,0.18,235.000000,,2013-12-02 20:32:00,
2013-12-02 14:42:00,35.0,35.0,-100.00,WSW,245,5.0,8.0,100,0.01,,,0.18,235.000000,,2013-12-02 20:42:00,
2013-12-02 14:52:00,35.0,35.0,-100.00,WSW,245,5.0,8.0,100,0.01,,,0.18,235.000000,,2013-12-02 20:52:00,
2013-12-02 15:21:00,31.0,31.0,-100.00,NE,56,7.0,9.0,100,0.00,,,0.18,117.000000,,2013-12-02 21:21:00,
2013-12-02 15:34:00,31.0,31.0,-100.00,NE,56,7.0,9.0,100,0.00,,,0.18,117.000000,,2013-12-02 21:34:00,
2013-12-02 15:43:00,31.0,31.0,-100.00,NE,56,7.0,9.0,100,0.00,,,0.18,117.000000,,2013-12-02 21:43:00,
2013-12-02 15:53:00,31.0,31.0,-100.00,NE,56,7.0,9.0,100,0.00,,,0.18,117.000000,,2013-12-02 21:53:00,
2013-12-02 16:23:00,30.0,30.0,-100.00,ENE,73,8.0,11.0,100,0.00,,,0.18,35.000000,,2013-12-02 22:23:00,
2013-12-02 16:33:00,30.0,30.0,-100.00,ENE,73,8.0,11.0,100,0.00,,,0.18,35.000000,,2013-12-02 22:33:00,
2013-12-02 16:43:00,30.0,30.0,-100.00,ENE,73,8.0,11.0,100,0.00,,,0.18,35.000000,,2013-12-02 22:43:00,
2013-12-02 16:53:00,30.0,30.0,-100.00,ENE,73,8.0,11.0,100,0.00,,,0.18,35.000000,,2013-12-02 22:53:00,
2013-12-02 17:22:00,29.0,29.0,-100.00,NE,54,10.0,13.0,100,0.00,,,0.18,10.000000,,2013-12-02 23:22:00,
2013-12-02 17:33:00,29.0,29.0,-100.00,NE,54,10.0,13.0,100,0.00,,,0.18,10.000000,,2013-12-02 23:33:00,
2013-12-02 17:42:00,29.0,29.0,-100.00,NE,54,10.0,13.0,100,0.00,,,0.18,10.000000,,2013-12-02 23:42:00,
2013-12-02 17:53:00,29.0,29.0,-100.00,NE,54,10.0,13.0,100,0.00,,,0.18,10.000000,,2013-12-02 23:53:00,
2013-12-02 18:21:00,29.0,29.0,-100.00,NE,36,10.0,15.0,100,0.00,,,0.18,5.000000,,2013-12-03 00:21:00,
2013-12-02 18:32:00,29.0,29.0,-100.00,NE,36,10.0,15.0,100,0.00,,,0.18,5.000000,,2013-12-03 00:32:00,
2013-12-02 18:42:00,29.0,29.0,-100.00,NE,36,10.0,15.0,100,0.00,,,0.18,5.000000,,2013-12-03 00:42:00,
2013-12-02 18:52:00,29.0,29.0,-100.00,NE,36,10.0,15.0,100,0.00,,,0.18,5.000000,,2013-12-03 00:52:00,
2013-12-02 19:21:00,28.0,28.0,-100.00,NNE,19,12.0,16.0,100,0.00,,,0.18,4.000000,,2013-12-03 01:21:00,
2013-12-02 19:32:00,28.0,28.0,-100.00,NNE,19,12.0,16.0,100,0.00,,,0.18,4.000000,,2013-12-03 01:32:00,
2013-12-02 19:42:00,28.0,28.0,-100.00,NNE,19,12.0,16.0,100,0.00,,,0.18,4.000000,,2013-12-03 01:42:00,
2013-12-02 19:52:00,28.0,28.0,-100.00,NNE,19,12.0,16.0,100,0.00,,,0.18,4.000000,,2013-12-03 01:52:00,
2013-12-02 20:21:00,27.0,27.0,-100.00,NNE,17,11.0,17.0,100,0.00,,,0.18,3.000000,,2013-12-03 02:21:00,
2013-12-02 20:32:00,27.0,27.0,-100.00,NNE,17,11.0,17.0,100,0.00,,,0.18,3.000000,,2013-12-03 02:32:00,
2013-12-02 20:42:00,27.0,27.0,-100.00,NNE,17,11.0,17.0,100,0.00,,,0.18,3.000000,,2013-12-03 02:42:00,
2013-12-02 20:52:00,27.0,27.0,-100.00,NNE,17,11.0,17.0,100,0.00,,,0.18,3.000000,,2013-12-03 02:52:00,
2013-12-02 21:21:00,25.0,25.0,-100.00,North,359,13.0,20.0,100,0.00,,,0.18,0.000000,,2013-12-03 03:21:00,
2013-12-02 21:33:00,25.0,25.0,-100.00,North,359,13.0,20.0,100,0.00,,,0.18,0.000000,,2013-12-03 03:33:00,
2013-12-02 21:43:00,25.0,25.0,-100.00,North,359,13.0,20.0,100,0.00,,,0.18,0.000000,,2013-12-03 03:43:00,
2013-12-02 21:53:00,25.0,25.0,-100.00,North,359,13.0,20.0,100,0.00,,,0.18,0.000000,,2013-12-03 03:53:00,
2013-12-02 22:23:00,25.0,25.0,-100.00,North,11,11.0,18.0,100,0.00,,,0.18,0.000000,,2013-12-03 04:23:00,
2013-12-02 22:33:00,25.0,25.0,-100.00,North,11,11.0,18.0,100,0.00,,,0.18,0.000000,,2013-12-03 04:33:00,
2013-12-02 22:43:00,25.0,25.0,-100.00,North,11,11.0,18.0,100,0.00,,,0.18,0.000000,,2013-12-03 04:43:00,
2013-12-02 22:52:00,25.0,25.0,-100.00,North,11,11.0,18.0,100,0.00,,,0.18,0.000000,,2013-12-03 04:52:00,
2013-12-02 23:22:00,24.0,24.0,-100.00,NNE,16,11.0,16.0,100,0.00,,,0.18,0.000000,,2013-12-03 05:22:00,
2013-12-02 23:33:00,24.0,24.0,-100.00,NNE,16,11.0,16.0,100,0.00,,,0.18,0.000000,,2013-12-03 05:33:00,
2013-12-02 23:42:00,24.0,24.0,-100.00,NNE,16,11.0,16.0,100,0.00,,,0.18,0.000000,,2013-12-03 05:42:00,
2013-12-02 23:53:00,24.0,24.0,-100.00,NNE,16,11.0,16.0,100,0.00,,,0.18,0.000000,,2013-12-03 05:53:00,